When you browse on this site, cookies collect data to enhance your experience and personalize the content and advertising you see.
Visit our Privacy Policy to learn more. By continuing to use the site, you agree to this use of cookies and data.

Tiempo cada hora Mochudi

Hoy, 20 Septiembre, Domingo

Tiempo Temperatura Precipitaciones Viento Presión Humedad
00:00 +24°C° 0 mm 3 mps 680 mmHg 23%
01:00 +23°C° 0 mm 2 mps 680 mmHg 24%
02:00 +21°C° 0 mm 2 mps 680 mmHg 26%
03:00 +21°C° 0 mm 2 mps 679 mmHg 27%
04:00 +20°C° 0 mm 3 mps 679 mmHg 29%
05:00 +20°C° 0 mm 3 mps 679 mmHg 30%
06:00 +22°C° 0 mm 4 mps 680 mmHg 28%
07:00 +25°C° 0 mm 5 mps 681 mmHg 25%
08:00 +27°C° 0 mm 6 mps 682 mmHg 22%
09:00 +30°C° 0 mm 6 mps 682 mmHg 19%
10:00 +34°C° 0 mm 6 mps 683 mmHg 15%
11:00 +38°C° 0 mm 6 mps 683 mmHg 12%
12:00 +37°C° 0 mm 5 mps 682 mmHg 11%
13:00 +38°C° 0 mm 4 mps 681 mmHg 10%
14:00 +40°C° 0 mm 4 mps 680 mmHg 10%
15:00 +39°C° 0 mm 3 mps 680 mmHg 10%
16:00 +38°C° 0 mm 3 mps 679 mmHg 10%
17:00 +38°C° 0 mm 3 mps 679 mmHg 11%
18:00 +35°C° 0 mm 3 mps 679 mmHg 13%
19:00 +31°C° 0 mm 3 mps 678 mmHg 15%
20:00 +29°C° 0 mm 3 mps 678 mmHg 17%
21:00 +28°C° 0 mm 3 mps 678 mmHg 18%
22:00 +27°C° 0 mm 4 mps 678 mmHg 20%
23:00 +26°C° 0 mm 4 mps 678 mmHg 21%

Mañana, 21 Septiembre, Lunes

Tiempo Temperatura Precipitaciones Viento Presión Humedad
00:00 +25°C° 0 mm 4 mps 678 mmHg 22%
01:00 +24°C° 0 mm 3 mps 678 mmHg 24%
02:00 +24°C° 0 mm 3 mps 678 mmHg 25%
03:00 +23°C° 0 mm 2 mps 677 mmHg 27%
04:00 +21°C° 0 mm 2 mps 677 mmHg 29%
05:00 +20°C° 0 mm 1 mps 677 mmHg 31%
06:00 +22°C° 0 mm 1 mps 678 mmHg 28%
07:00 +24°C° 0 mm 1 mps 679 mmHg 25%
08:00 +26°C° 0 mm 1 mps 680 mmHg 22%
09:00 +29°C° 0 mm 1 mps 681 mmHg 19%
10:00 +32°C° 0 mm 1 mps 681 mmHg 15%
11:00 +35°C° 0 mm 2 mps 681 mmHg 12%
12:00 +37°C° 0 mm 2 mps 681 mmHg 11%
13:00 +38°C° 0 mm 3 mps 680 mmHg 10%
14:00 +39°C° 0 mm 3 mps 680 mmHg 9%
15:00 +39°C° 0 mm 3 mps 680 mmHg 9%
16:00 +39°C° 0 mm 3 mps 679 mmHg 9%
17:00 +38°C° 0 mm 4 mps 679 mmHg 8%
18:00 +36°C° 0 mm 3 mps 679 mmHg 10%
19:00 +33°C° 0 mm 3 mps 679 mmHg 11%
20:00 +30°C° 0 mm 2 mps 679 mmHg 13%
21:00 +28°C° 0 mm 2 mps 680 mmHg 11%
22:00 +27°C° 0 mm 2 mps 680 mmHg 10%
23:00 +25°C° 0 mm 2 mps 681 mmHg 9%

Pasado mañana, 22 Septiembre, Martes

Tiempo Temperatura Precipitaciones Viento Presión Humedad
00:00 +24°C° 0 mm 3 mps 681 mmHg 21%
01:00 +22°C° 0 mm 5 mps 681 mmHg 32%
02:00 +21°C° 0 mm 7 mps 681 mmHg 44%
03:00 +20°C° 0 mm 7 mps 682 mmHg 52%
04:00 +17°C° 0 mm 7 mps 682 mmHg 60%
05:00 +16°C° 0 mm 7 mps 682 mmHg 68%
06:00 +16°C° 0 mm 7 mps 683 mmHg 67%
07:00 +16°C° 0 mm 7 mps 684 mmHg 65%
08:00 +17°C° 0 mm 7 mps 685 mmHg 64%
09:00 +17°C° 0 mm 8 mps 685 mmHg 60%
10:00 +18°C° 0 mm 8 mps 685 mmHg 57%
11:00 +19°C° 0 mm 9 mps 686 mmHg 53%
12:00 +21°C° 0 mm 8 mps 685 mmHg 48%
13:00 +23°C° 0 mm 8 mps 685 mmHg 42%
14:00 +26°C° 0 mm 8 mps 685 mmHg 37%
15:00 +26°C° 0 mm 8 mps 685 mmHg 37%
16:00 +24°C° 0 mm 8 mps 685 mmHg 38%
17:00 +24°C° 0 mm 7 mps 684 mmHg 38%
18:00 +22°C° 0 mm 6 mps 685 mmHg 44%
19:00 +20°C° 0 mm 5 mps 685 mmHg 49%
20:00 +18°C° 0 mm 4 mps 685 mmHg 54%
21:00 +18°C° 0 mm 4 mps 686 mmHg 57%
22:00 +17°C° 0 mm 4 mps 686 mmHg 61%
23:00 +15°C° 0 mm 5 mps 686 mmHg 65%

23 Septiembre, Miércoles

Tiempo Temperatura Precipitaciones Viento Presión Humedad
00:00 +14°C° 0 mm 5 mps 685 mmHg 68%
01:00 +14°C° 0 mm 4 mps 685 mmHg 71%
02:00 +13°C° 0 mm 4 mps 684 mmHg 74%
03:00 +12°C° 0 mm 4 mps 684 mmHg 76%
04:00 +12°C° 0 mm 3 mps 684 mmHg 78%
05:00 +11°C° 0 mm 3 mps 683 mmHg 80%
06:00 +13°C° 0 mm 4 mps 684 mmHg 73%
07:00 +14°C° 0 mm 4 mps 685 mmHg 66%
08:00 +15°C° 0 mm 5 mps 686 mmHg 59%
09:00 +19°C° 0 mm 5 mps 686 mmHg 51%
10:00 +22°C° 0 mm 5 mps 686 mmHg 43%
11:00 +25°C° 0 mm 5 mps 686 mmHg 35%
12:00 +27°C° 0 mm 4 mps 685 mmHg 31%
13:00 +29°C° 0 mm 4 mps 684 mmHg 27%
14:00 +32°C° 0 mm 4 mps 683 mmHg 23%
15:00 +31°C° 0 mm 3 mps 683 mmHg 22%
16:00 +31°C° 0 mm 3 mps 683 mmHg 22%
17:00 +31°C° 0 mm 3 mps 682 mmHg 22%
18:00 +29°C° 0 mm 3 mps 682 mmHg 26%
19:00 +26°C° 0 mm 3 mps 682 mmHg 31%
20:00 +24°C° 0 mm 3 mps 682 mmHg 35%
21:00 +22°C° 0 mm 3 mps 682 mmHg 38%
22:00 +21°C° 0 mm 3 mps 682 mmHg 40%
23:00 +20°C° 0 mm 3 mps 682 mmHg 42%

24 Septiembre, Jueves

Tiempo Temperatura Precipitaciones Viento Presión Humedad
00:00 +20°C° 0 mm 2 mps 682 mmHg 45%
01:00 +19°C° 0 mm 2 mps 681 mmHg 47%
02:00 +18°C° 0 mm 2 mps 681 mmHg 50%
03:00 +17°C° 0 mm 2 mps 681 mmHg 53%
04:00 +16°C° 0 mm 2 mps 681 mmHg 55%
05:00 +16°C° 0 mm 2 mps 681 mmHg 58%
06:00 +18°C° 0 mm 3 mps 682 mmHg 53%
07:00 +19°C° 0 mm 4 mps 682 mmHg 48%
08:00 +21°C° 0 mm 4 mps 683 mmHg 43%
09:00 +25°C° 0 mm 4 mps 683 mmHg 36%
10:00 +29°C° 0 mm 4 mps 683 mmHg 29%
11:00 +33°C° 0 mm 4 mps 683 mmHg 21%
12:00 +34°C° 0 mm 3 mps 683 mmHg 18%
13:00 +36°C° 0 mm 3 mps 682 mmHg 15%
14:00 +37°C° 0 mm 2 mps 682 mmHg 12%
15:00 +37°C° 0 mm 2 mps 681 mmHg 12%
16:00 +36°C° 0 mm 2 mps 680 mmHg 12%
17:00 +36°C° 0 mm 2 mps 680 mmHg 12%
18:00 +32°C° 0 mm 2 mps 680 mmHg 15%
19:00 +29°C° 0 mm 3 mps 679 mmHg 17%
20:00 +27°C° 0 mm 3 mps 679 mmHg 20%
21:00 +26°C° 0 mm 3 mps 679 mmHg 21%
22:00 +25°C° 0 mm 3 mps 679 mmHg 23%
23:00 +22°C° 0 mm 3 mps 679 mmHg 24%

25 Septiembre, Viernes

Tiempo Temperatura Precipitaciones Viento Presión Humedad
00:00 +23°C° 0 mm 2 mps 679 mmHg 26%
01:00 +21°C° 0 mm 2 mps 679 mmHg 27%
02:00 +20°C° 0 mm 2 mps 678 mmHg 29%
03:00 +19°C° 0 mm 2 mps 678 mmHg 31%
04:00 +18°C° 0 mm 2 mps 679 mmHg 33%
05:00 +18°C° 0 mm 2 mps 679 mmHg 36%
06:00 +19°C° 0 mm 2 mps 679 mmHg 33%
07:00 +21°C° 0 mm 2 mps 680 mmHg 30%
08:00 +24°C° 0 mm 2 mps 681 mmHg 27%
09:00 +27°C° 0 mm 2 mps 681 mmHg 23%
10:00 +30°C° 0 mm 2 mps 681 mmHg 19%
11:00 +35°C° 0 mm 2 mps 681 mmHg 14%
12:00 +36°C° 0 mm 2 mps 681 mmHg 13%
13:00 +37°C° 0 mm 2 mps 680 mmHg 12%
14:00 +38°C° 0 mm 3 mps 679 mmHg 11%
15:00 +38°C° 0 mm 3 mps 678 mmHg 11%
16:00 +38°C° 0 mm 3 mps 678 mmHg 11%
17:00 +38°C° 0 mm 3 mps 677 mmHg 11%
18:00 +35°C° 0 mm 3 mps 677 mmHg 13%
19:00 +33°C° 0 mm 3 mps 677 mmHg 16%
20:00 +29°C° 0 mm 2 mps 676 mmHg 18%
21:00 +28°C° 0 mm 2 mps 676 mmHg 20%
22:00 +27°C° 0 mm 2 mps 676 mmHg 21%
23:00 +25°C° 0 mm 2 mps 676 mmHg 23%
Mostrar más